Weather History for Shreveport Downtown, LA

Change the Weather History Date:

Saturday, March 9, 2013

  Actual Average (KSHV) Record (KSHV)
Temperature  
Mean Temperature 60 °F 56 °F  
Max Temperature 66 °F 68 °F 90 °F (1911)
Min Temperature 55 °F 45 °F 20 °F (1932)
Degree Days  
Heating Degree Days 4 10  
Month to date heating degree days 94  
Since 1 July heating degree days 1976  
Cooling Degree Days 0 1  
Month to date cooling degree days 7  
Year to date cooling degree days 17  
Growing Degree Days 10 (Base 50)    
Moisture  
Dew Point 52 °F    
Average Humidity 71    
Maximum Humidity 88    
Minimum Humidity 57    
Precipitation  
Precipitation 0.00 in 0.13 in 4.14 in (1878)
Month to date precipitation 1.27  
Year to date precipitation 10.22  
Snow  
Snow 0.00 in - - ()
Month to date snowfall  
Since 1 July snowfall  
Snow Depth -    
Sea Level Pressure  
Sea Level Pressure 29.96 in    
Wind  
Wind Speed 11 mph (SSE)    
Max Wind Speed 18 mph    
Max Gust Speed 25 mph    
Visibility 10 miles    
Events Rain    
T = Trace of Precipitation, MM = Missing Value Source: NWS Daily Summary

Daily Weather History Graph

Daily Weather History Graph

Search for Another Location

Airport:

Trip Planner

Search our weather history database for the weather conditions in past years. The results will help you decide how hot, cold, wet, or windy it might be!

Date:

Astronomy

Mar. 09, 2013 Rise Set
Actual Time 6:32 AM CST 6:18 PM CST
Civil Twilight 6:07 AM CST 6:43 PM CST
Nautical Twilight 5:39 AM CST 7:11 PM CST
Astronomical Twilight 5:10 AM CST 7:40 PM CST
Moon 4:51 AM CST (3/9) 4:25 PM CST (3/9)
Length of Visible Light 12h 35m
Length of Day
11h 46m
Waning Crescent, 5% of the Moon is Illuminated
Mar 9
Waning Crescent
Mar 11
New
Mar 19
First Quarter
Mar 27
Full
Apr 2
Last Quarter

Hourly Weather History & Observations

Time (CST) Temp. Dew Point Humidity Pressure Visibility Wind Dir Wind Speed Gust Speed Precip Events Conditions
12:53 AM 60.1 °F 45.0 °F 57% 30.09 in 10.0 mi South 6.9 mph - N/A   Clear
1:53 AM 59.0 °F 45.0 °F 60% 30.09 in 10.0 mi South 5.8 mph - N/A   Clear
2:53 AM 57.9 °F 45.0 °F 62% 30.06 in 10.0 mi SSE 8.1 mph - N/A   Clear
3:53 AM 57.9 °F 43.0 °F 58% 30.04 in 10.0 mi SE 6.9 mph - N/A   Clear
4:53 AM 57.0 °F 44.1 °F 62% 30.03 in 10.0 mi SSE 9.2 mph - N/A   Clear
5:53 AM 55.9 °F 44.1 °F 64% 30.04 in 10.0 mi SE 6.9 mph - N/A   Clear
6:53 AM 55.9 °F 44.1 °F 64% 30.04 in 10.0 mi SE 8.1 mph - N/A   Scattered Clouds
7:45 AM 57.2 °F 44.6 °F 63% 30.05 in 10.0 mi SE 10.4 mph - N/A   Mostly Cloudy
7:53 AM 57.0 °F 45.0 °F 64% 30.05 in 10.0 mi SE 10.4 mph - N/A   Mostly Cloudy
8:11 AM 57.2 °F 44.6 °F 63% 30.05 in 10.0 mi SE 11.5 mph - N/A   Scattered Clouds
8:31 AM 57.2 °F 46.4 °F 67% 30.05 in 10.0 mi SE 12.7 mph - N/A   Mostly Cloudy
8:53 AM 57.9 °F 48.9 °F 72% 30.04 in 10.0 mi SE 13.8 mph - N/A   Mostly Cloudy
9:23 AM 59.0 °F 51.8 °F 77% 30.04 in 10.0 mi SE 13.8 mph - N/A   Mostly Cloudy
9:53 AM 60.1 °F 52.0 °F 75% 30.03 in 10.0 mi SSE 17.3 mph 20.7 mph N/A   Mostly Cloudy
10:09 AM 62.6 °F 53.6 °F 72% 30.03 in 10.0 mi SE 13.8 mph 20.7 mph N/A   Scattered Clouds
10:53 AM 62.1 °F 55.0 °F 78% 30.01 in 10.0 mi SSE 11.5 mph 20.7 mph N/A   Mostly Cloudy
11:53 AM 64.0 °F 55.9 °F 75% 29.99 in 10.0 mi SSE 15.0 mph - N/A   Overcast
12:53 PM 64.0 °F 55.9 °F 75% 29.96 in 10.0 mi SSE 18.4 mph - N/A   Overcast
1:53 PM 64.0 °F 55.9 °F 75% 29.92 in 10.0 mi SE 15.0 mph - N/A   Overcast
2:53 PM 66.0 °F 55.9 °F 70% 29.87 in 10.0 mi SE 13.8 mph 23.0 mph N/A   Mostly Cloudy
3:33 PM 66.2 °F 57.2 °F 73% 29.87 in 10.0 mi SE 15.0 mph 20.7 mph N/A   Overcast
3:53 PM 66.9 °F 57.0 °F 70% 29.87 in 10.0 mi SE 10.4 mph 19.6 mph N/A   Overcast
4:53 PM 66.9 °F 57.0 °F 70% 29.86 in 10.0 mi SSE 10.4 mph - N/A   Overcast
5:53 PM 66.9 °F 57.0 °F 70% 29.84 in 10.0 mi SE 10.4 mph - N/A   Partly Cloudy
6:53 PM 64.9 °F 57.0 °F 75% 29.81 in 10.0 mi SE 12.7 mph - N/A   Partly Cloudy
7:53 PM 66.9 °F 55.9 °F 68% 29.85 in 10.0 mi South 12.7 mph - N/A   Overcast
8:53 PM 66.0 °F 55.9 °F 70% 29.86 in 10.0 mi SSE 17.3 mph 25.3 mph N/A   Overcast
9:37 PM 66.2 °F 55.4 °F 68% 29.87 in 10.0 mi SSE 16.1 mph 23.0 mph N/A   Overcast
9:53 PM 66.0 °F 57.0 °F 73% 29.88 in 10.0 mi South 11.5 mph - N/A   Overcast
10:18 PM 66.2 °F 57.2 °F 73% 29.88 in 10.0 mi South 17.3 mph 21.9 mph N/A   Overcast
10:31 PM 64.4 °F 57.2 °F 77% 29.89 in 10.0 mi South 15.0 mph 21.9 mph N/A   Overcast
10:38 PM 64.4 °F 57.2 °F 77% 29.89 in 10.0 mi SSE 16.1 mph 25.3 mph N/A   Overcast
10:53 PM 64.0 °F 57.9 °F 80% 29.88 in 8.0 mi South 13.8 mph 23.0 mph 0.00 in Rain Light Rain
11:38 PM 62.6 °F 59.0 °F 88% 29.85 in 10.0 mi SSE 8.1 mph - 0.00 in   Overcast
11:53 PM 63.0 °F 59.0 °F 87% 29.85 in 10.0 mi SSE 10.4 mph - 0.00 in   Overcast